Mattoon, IL

12:03 AM CST on February 26, 2017 (GMT -0600)
Coles County Memorial

Weather History for KMTO - December, 2013

Change the Weather History Date:

Tuesday, December 24, 2013

  Actual Average Record
Temperature  
Mean Temperature 12 °F 29 °F  
Max Temperature 20 °F 36 °F 60 °F (1955)
Min Temperature 4 °F 22 °F -16 °F (1983)
Degree Days  
Heating Degree Days 53 36  
Month to date heating degree days 874 789  
Since 1 July heating degree days 1991 1848  
Cooling Degree Days 0 0  
Month to date cooling degree days 0 0  
Year to date cooling degree days 1007 1057  
Moisture  
Dew Point 4 °F    
Average Humidity 70    
Maximum Humidity 83    
Minimum Humidity 56    
Precipitation  
Precipitation 0.00 in 0.11 in 0.96 in (1965)
Month to date precipitation 1.59 2.05  
Year to date precipitation 42.35 37.33  
Sea Level Pressure  
Sea Level Pressure 30.54 in    
Wind  
Wind Speed 9 mph (WSW)    
Max Wind Speed 18 mph    
Max Gust Speed 22 mph    
Visibility 10 miles    
Events      
T = Trace of Precipitation, MM = Missing Value Source: NWS Daily Summary

Daily Weather History Graph

Daily Weather History Graph

Search for Another Location

Airport or City:

Trip Planner

Search our weather history database for the weather conditions in past years. The results will help you decide how hot, cold, wet, or windy it might be!

Date:

Astronomy

Dec. 24, 2013 Rise Set
Actual Time 7:11 AM CST 4:34 PM CST
Civil Twilight 6:41 AM CST 5:04 PM CST
Nautical Twilight 6:07 AM CST 5:38 PM CST
Astronomical Twilight 5:34 AM CST 6:11 PM CST
Moon 11:40 PM CST (12/24) 11:07 AM CST (12/24)
Length of Visible Light 10h 23m
Length of Day
9h 23m
Waning Gibbous, 58% of the Moon is Illuminated
Dec 24
Waning Gibbous
Dec 25
Last Quarter
Jan 1
New
Jan 7
First Quarter
Jan 15
Full

Hourly Weather History & Observations

Time (CST) Temp. Windchill Dew Point Humidity Pressure Visibility Wind Dir Wind Speed Gust Speed Precip Events Conditions
12:34 AM 8.1 °F -9.0 °F -0.0 °F 70% 30.52 in 10.0 mi NNW 15.0 mph - N/A   Scattered Clouds
12:53 AM 7.0 °F -7.5 °F -0.9 °F 70% 30.55 in 10.0 mi NW 10.4 mph - N/A   Clear
1:18 AM 7.0 °F -9.8 °F -0.9 °F 70% 30.52 in 10.0 mi NW 13.8 mph - N/A   Mostly Cloudy
1:25 AM 7.0 °F -9.1 °F -2.0 °F 67% 30.52 in 10.0 mi NW 12.7 mph - N/A   Scattered Clouds
1:53 AM 7.0 °F -9.1 °F -2.0 °F 67% 30.56 in 10.0 mi WNW 12.7 mph - N/A   Clear
2:53 AM 6.1 °F -9.5 °F -0.9 °F 73% 30.56 in 10.0 mi WNW 11.5 mph - N/A   Clear
3:53 AM 6.1 °F -9.5 °F -2.9 °F 67% 30.56 in 10.0 mi WNW 11.5 mph - N/A   Clear
4:53 AM 5.0 °F -9.1 °F -0.9 °F 76% 30.58 in 10.0 mi WNW 9.2 mph - N/A   Clear
5:53 AM 5.0 °F -10.0 °F -2.0 °F 73% 30.59 in 10.0 mi WNW 10.4 mph - N/A   Clear
6:53 AM 5.0 °F -9.1 °F -2.0 °F 73% 30.61 in 10.0 mi WNW 9.2 mph - N/A   Clear
7:53 AM 6.1 °F -5.6 °F -0.9 °F 73% 30.61 in 10.0 mi West 6.9 mph - N/A   Clear
8:53 AM 8.1 °F -3.2 °F -0.9 °F 67% 30.62 in 10.0 mi WNW 6.9 mph - N/A   Clear
9:53 AM 10.0 °F 0.4 °F -0.0 °F 64% 30.64 in 10.0 mi SW 5.8 mph - N/A   Clear
10:53 AM 12.0 °F 2.7 °F 1.9 °F 64% 30.63 in 10.0 mi West 5.8 mph - N/A   Clear
11:53 AM 14.0 °F - 3.0 °F 62% 30.60 in 10.0 mi Calm Calm - N/A   Clear
12:53 PM 17.1 °F 10.0 °F 5.0 °F 59% 30.58 in 10.0 mi WSW 4.6 mph - N/A   Clear
1:53 PM 17.1 °F 10.0 °F 7.0 °F 65% 30.55 in 10.0 mi ESE 4.6 mph - N/A   Clear
2:53 PM 18.0 °F 6.1 °F 7.0 °F 62% 30.55 in 10.0 mi South 10.4 mph - N/A   Clear
3:53 PM 19.0 °F 8.2 °F 8.1 °F 62% 30.54 in 10.0 mi South 9.2 mph - N/A   Clear
4:53 PM 17.1 °F 6.6 °F 9.0 °F 71% 30.52 in 10.0 mi SSE 8.1 mph - N/A   Clear
5:53 PM 18.0 °F 7.7 °F 10.0 °F 71% 30.51 in 10.0 mi SSE 8.1 mph - N/A   Overcast
6:53 PM 18.0 °F 7.7 °F 10.9 °F 74% 30.51 in 10.0 mi SSE 8.1 mph - N/A   Scattered Clouds
7:53 PM 18.0 °F 5.4 °F 10.9 °F 74% 30.49 in 10.0 mi South 11.5 mph - N/A   Mostly Cloudy
8:53 PM 19.0 °F 6.8 °F 10.9 °F 71% 30.45 in 10.0 mi SSE 11.5 mph - N/A   Overcast
9:53 PM 19.0 °F 6.1 °F 10.9 °F 71% 30.44 in 10.0 mi SSE 12.7 mph - N/A   Scattered Clouds
10:53 PM 19.9 °F 7.3 °F 10.9 °F 68% 30.42 in 10.0 mi SSE 12.7 mph - N/A   Clear
11:53 PM 19.9 °F 7.3 °F 10.9 °F 68% 30.41 in 10.0 mi SSE 12.7 mph 20.7 mph N/A   Clear